This is the latest recevied weather packets stored in our database for station/object K8FJG-13. If no packets are shown the sender has not sent any weather packets the latest 10 day(s).
| Time | Temp. | Humidity | Pressure | Rain* | Wind** | Luminosity | Snow |
|---|---|---|---|---|---|---|---|
| 1777565451 | 7.22° C | 73% | 969.5 hPa | - | - | - | - |
| 1777564848 | 7.22° C | 74% | 969.6 hPa | - | - | - | - |
| 1777564245 | 6.67° C | 74% | 969.6 hPa | - | - | - | - |
| 1777563642 | 7.22° C | 75% | 969.5 hPa | - | - | - | - |
| 1777563039 | 6.67° C | 78% | 969.5 hPa | - | - | - | - |
| 1777562436 | 6.67° C | 79% | 969.4 hPa | - | - | - | - |
| 1777561833 | 6.67° C | 80% | 969.3 hPa | - | - | - | - |
| 1777561229 | 6.67° C | 79% | 969.3 hPa | - | - | - | - |
| 1777560626 | 6.11° C | 80% | 969 hPa | - | - | - | - |
| 1777560023 | 6.11° C | 81% | 968.9 hPa | - | - | - | - |
| 1777559420 | 6.11° C | 80% | 968.7 hPa | - | - | - | - |
| 1777558817 | 6.11° C | 81% | 968.5 hPa | - | - | - | - |
| 1777558213 | 5.56° C | 84% | 968.4 hPa | - | - | - | - |
| 1777557610 | 5.56° C | 84% | 968.2 hPa | - | - | - | - |
| 1777557007 | 5.56° C | 86% | 968.1 hPa | - | - | - | - |
| 1777556404 | 5.56° C | 86% | 967.9 hPa | - | - | - | - |
| 1777555801 | 5° C | 88% | 967.9 hPa | - | - | - | - |
| 1777555198 | 5.56° C | 89% | 967.9 hPa | - | - | - | - |
| 1777554594 | 5.56° C | 90% | 967.7 hPa | - | - | - | - |
| 1777553991 | 5° C | 90% | 967.6 hPa | - | - | - | - |
| 1777553388 | 5° C | 91% | 967.5 hPa | - | - | - | - |
| 1777552785 | 4.44° C | 92% | 967.6 hPa | - | - | - | - |
| 1777552182 | 4.44° C | 92% | 967.6 hPa | - | - | - | - |
| 1777551579 | 4.44° C | 92% | 967.6 hPa | - | - | - | - |
| 1777550976 | 3.89° C | 92% | 967.5 hPa | - | - | - | - |
* Rain since midnight (hover to see other rain measurements)
** Current wind speed in m/s (hover to see current wind gust speed)